[x] [x]
.:Aeroklub Partizánske:. |  .:Fotogaléria:. |  .:Videogaléria:. |  .:Foto týždňa:. |  .:Kniha návštev:. |  .:Linky:. |  .:Moje konto:.
 MENU [x]

 METEO [x]

 FotoGaléria [x]

 Slnko [x]
LZPT Partizánske
48°37'N 18°20'E
Východ: 6:28 AM
Západ: 4:33 PM
LZIB Bratislava
48°10'N 17°12'E
Východ: 6:31 AM
Západ: 4:38 PM
LZKZ Košice
48°39'N 21°14'E
Východ: 6:16 AM
Západ: 4:21 PM

 Jazyky [x]
Vyberte jazyk rozhrania:

Slovak English German Polish


  SPRÁVY METAR - SLOVENSKO
Bratislava-IvankaLZIB 301230Z VRB02KT CAVOK 12/03 Q1026 NOSIGdekóduj
Kamenica nad CirochouLZKC 011200Z 21006KT 150V290 9999 FEW053 04/M07 Q1019dekóduj
KošiceLZKZ 301230Z VRB02KT CAVOK 11/04 Q1024 NOSIGdekóduj
Poprad - TatryLZTT 301230Z VRB02KT 9999 FEW040 10/M01 Q1023 NOSIGdekóduj
LučenecLZLU 141110Z AUTO 08009KT //// ////// 02/01 Q0994dekóduj
NitraLZNI 312000Z /////KT CAVOK 01/M02 Q1022dekóduj
PrievidzaLZPE 312000Z /////KT CAVOK M03/M04 Q1022dekóduj
PiešťanyLZPP 301230Z VRB02KT CAVOK 11/03 Q1026dekóduj
SliačLZSL 301230Z 14003KT 060V210 CAVOK 12/04 Q1024dekóduj
ŽilinaLZZI 301230Z 00000KT CAVOK 09/04 Q1025dekóduj
 FreeFly INFO [x]
COROWA 2009


COROWA 2009


COROWA 2009



 LZPT webcam [x]

 Foto týždňa [x]

 KBO SNA [x]

 Login [x]
Užívateľské meno

Heslo


Ešte nemáš konto? Môžeš si ho vytvoriť. Registrovaný užívateľ má množstvo výhod, napr. posielanie okamžitých správ iným užívateľom, posielanie komentárov s vlastným menom, možnosť pridávať fotografie do galérie...

 Kto je online [x]
Momentálne je online 52 hostí a 0 členov.

Ste anonymný užívateľ. Zaregistrovať sa môžete tu

DETAILY

 Linky [x]

 Počítadlo návštev [x]
Zaznamenali sme
34114736
strán zobrazených od júna 2003

Počet dnešných unikátnych IP adries:
0



www.freefly.sk
Powered by SzMsoft ©2003-2005. Polish translations by Cezary Dąbek. Flying server www.freefly.sk is administrated by maro@freefly.sk - www.artweb.freefly.sk
PHP-Nuke Copyright © 2004 by Francisco Burzi. This is free software, and you may redistribute it under the GPL. PHP-Nuke comes with absolutely no warranty, for details, see the license.